Location: Boca do Mato
(22.9085°S, 43.2930°W)
Time: 01:16:22
(UTC+00:00)

NOAA 12 - Visible Passes

Search period start: 24 October 2020 00:00
Search period end: 03 November 2020 00:00
Orbit: 796 x 814 km, 98.5° (Epoch: 23 October)

Date Brightness Start Highest point End Pass type
(mag) Time Alt. Az. Time Alt. Az. Time Alt. Az.
24 Oct 6.9 07:47:40 10° NE 07:51:52 24° ESE 07:56:04 10° SSE visible
24 Oct 6.2 21:51:37 10° SSW 21:56:09 30° WSW 22:00:40 10° NW visible
25 Oct 7.6 07:24:44 10° E 07:27:02 13° ESE 07:29:21 10° SE visible
25 Oct 5.0 21:26:03 10° S 21:31:13 56° WSW 21:36:21 10° NNW visible
27 Oct 7.2 22:17:22 10° SSW 22:20:33 16° WSW 22:23:44 10° WNW visible
28 Oct 7.0 07:47:14 10° NE 07:51:25 24° ESE 07:55:36 10° SSE visible
28 Oct 6.3 21:51:09 10° SSW 21:55:42 30° WSW 22:00:14 10° NW visible
29 Oct 7.7 07:24:20 10° E 07:26:36 13° ESE 07:28:52 10° SE visible
29 Oct 5.0 21:25:36 10° S 21:30:46 57° WSW 21:35:55 10° NNW visible
31 Oct 7.2 22:16:53 10° SSW 22:20:06 16° WSW 22:23:18 10° WNW visible
01 Nov 6.3 21:50:41 10° SSW 21:55:15 30° WSW 21:59:48 10° NW visible
02 Nov 7.7 07:23:56 10° E 07:26:09 13° ESE 07:28:22 10° SE visible
02 Nov 5.0 21:25:08 10° S 21:30:19 57° WSW 21:35:29 10° NNW visible
